Location: Bastogne Gables
(35.1554°N, 78.9900°W)
Time: 22:02:18
(UTC+00:00)

SL-08 R/B - Pass Details

Date: 29 October 2020
Orbit: 946 x 994 km, 83.0° (Epoch: 25 November)

Event Time Altitude Azimuth Distance (km) Brightness Sun altitude
Rises 23:17:34 0° 356° (N) 3,643 7.4 -11.5°
Reaches altitude 10° 23:20:06 10° 360° (N) 2,688 6.7 -12.0°
Maximum altitude 23:26:13 67° 82° (E) 1,023 4.4 -13.3°
Drops below altitude 10° 23:32:14 10° 165° (SSE) 2,656 6.7 -14.5°
Sets 23:34:44 0° 168° (SSE) 3,597 7.4 -15.0°
